| time (UTC) | temp F | wind direction | speed MPH | gust MPH | rain 1hr in | rain 24hr in | rain mn in | humidity % | barometer mb |
| 20260906111412 | 56 | 98 | 3.0 | 5.0 | 0.00 | 0.00 | 0.00 | 83 | 1015.7 |
| 20260906111134 | 56 | 99 | 2.0 | 4.0 | 0.00 | 0.00 | 0.00 | 83 | 1015.7 |
| 20260906110409 | 56 | 99 | 2.0 | 4.0 | 0.00 | 0.00 | 0.00 | 83 | 1015.8 |
| 20260906105904 | 56 | 98 | 2.0 | 4.0 | 0.00 | 0.00 | 0.00 | 83 | 1015.7 |
| 20260906105404 | 56 | 99 | 2.0 | 4.0 | 0.00 | 0.00 | 0.00 | 83 | 1015.8 |
| 20260906104902 | 56 | 99 | 2.0 | 4.0 | 0.00 | 0.00 | 0.00 | 83 | 1015.8 |
| 20260906104401 | 56 | 99 | 2.0 | 4.0 | 0.00 | 0.00 | 0.00 | 82 | 1015.7 |
| 20260906103901 | 56 | 99 | 2.0 | 4.0 | 0.00 | 0.00 | 0.00 | 83 | 1015.7 |
| 20260906103401 | 56 | 99 | 2.0 | 4.0 | 0.00 | 0.00 | 0.00 | 83 | 1015.6 |
| 20260906102401 | 56 | 99 | 2.0 | 4.0 | 0.00 | 0.00 | 0.00 | 83 | 1015.7 |
| 20260906101903 | 56 | 99 | 2.0 | 4.0 | 0.00 | 0.00 | 0.00 | 83 | 1015.7 |
| 20260906101628 | 57 | 99 | 1.0 | 4.0 | 0.00 | 0.00 | 0.00 | 83 | 1015.7 |
| 20260906101130 | 57 | 99 | 0.0 | 0.0 | 0.00 | 0.00 | 0.00 | 83 | 1015.8 |
| 20260906100356 | 57 | 99 | 1.0 | 4.0 | 0.00 | 0.00 | 0.00 | 83 | 1015.8 |
| 20260906095854 | 57 | 99 | 1.0 | 4.0 | 0.00 | 0.00 | 0.00 | 83 | 1015.7 |
| 20260906095354 | 57 | 100 | 0.0 | 4.0 | 0.00 | 0.00 | 0.00 | 83 | 1015.7 |
| 20260906094847 | 57 | 75 | 1.0 | 3.0 | 0.00 | 0.00 | 0.00 | 82 | 1015.8 |
| 20260906094342 | 57 | 74 | 1.0 | 3.0 | 0.00 | 0.00 | 0.00 | 80 | 1015.7 |
| 20260906093836 | 57 | 74 | 1.0 | 2.0 | 0.00 | 0.00 | 0.00 | 79 | 1015.6 |
| 20260906093330 | 57 | 74 | 1.0 | 2.0 | 0.00 | 0.00 | 0.00 | 78 | 1015.7 |
| 20260906092830 | 57 | 74 | 1.0 | 2.0 | 0.00 | 0.00 | 0.00 | 77 | 1015.9 |
| 20260906092330 | 57 | 74 | 2.0 | 2.0 | 0.00 | 0.00 | 0.00 | 77 | 1015.7 |
| 20260906092100 | 58 | 74 | 1.0 | 2.0 | 0.00 | 0.00 | 0.00 | 77 | 1015.8 |
| 20260906091330 | 58 | 74 | 0.0 | 2.0 | 0.00 | 0.00 | 0.00 | 76 | 1015.8 |
| 20260906090830 | 58 | 74 | 1.0 | 2.0 | 0.00 | 0.00 | 0.00 | 75 | 1015.9 |
| 20260906090336 | 58 | 74 | 1.0 | 2.0 | 0.00 | 0.00 | 0.00 | 75 | 1015.9 |
| 20260906085831 | 58 | 74 | 2.0 | 3.0 | 0.00 | 0.00 | 0.00 | 74 | 1015.9 |
| 20260906085329 | 59 | 74 | 2.0 | 4.0 | 0.00 | 0.00 | 0.00 | 73 | 1015.9 |
| 20260906084829 | 59 | 74 | 2.0 | 4.0 | 0.00 | 0.00 | 0.00 | 74 | 1016.0 |
| 20260906084329 | 59 | 44 | 2.0 | 3.0 | 0.00 | 0.00 | 0.00 | 73 | 1016.0 |
| 20260906083829 | 59 | 44 | 2.0 | 3.0 | 0.00 | 0.00 | 0.00 | 72 | 1016.1 |
| 20260906083329 | 59 | 43 | 2.0 | 3.0 | 0.00 | 0.00 | 0.00 | 72 | 1016.1 |
| 20260906082829 | 59 | 43 | 2.0 | 3.0 | 0.00 | 0.00 | 0.00 | 72 | 1016.0 |
| 20260906082553 | 59 | 43 | 2.0 | 3.0 | 0.00 | 0.00 | 0.00 | 71 | 1016.0 |
| 20260906081828 | 59 | 42 | 2.0 | 3.0 | 0.00 | 0.00 | 0.00 | 71 | 1016.0 |
| 20260906081329 | 59 | 42 | 2.0 | 3.0 | 0.00 | 0.00 | 0.00 | 72 | 1016.0 |
| 20260906081058 | 59 | 42 | 2.0 | 3.0 | 0.00 | 0.00 | 0.00 | 73 | 1016.0 |
| 20260906080329 | 59 | 42 | 2.0 | 3.0 | 0.00 | 0.00 | 0.00 | 72 | 1016.0 |
| 20260906075830 | 59 | 42 | 2.0 | 3.0 | 0.00 | 0.00 | 0.00 | 73 | 1016.0 |
| 20260906075329 | 59 | 42 | 2.0 | 3.0 | 0.00 | 0.00 | 0.00 | 73 | 1016.0 |
| 20260906074830 | 59 | 39 | 2.0 | 3.0 | 0.00 | 0.00 | 0.00 | 73 | 1016.1 |
| 20260906074329 | 59 | 39 | 2.0 | 3.0 | 0.00 | 0.00 | 0.00 | 74 | 1016.1 |
| 20260906073832 | 59 | 39 | 2.0 | 3.0 | 0.00 | 0.00 | 0.00 | 75 | 1016.0 |
| 20260906073328 | 59 | 39 | 2.0 | 3.0 | 0.00 | 0.00 | 0.00 | 75 | 1016.1 |
| 20260906073056 | 59 | 39 | 2.0 | 3.0 | 0.00 | 0.00 | 0.00 | 75 | 1016.1 |
| 20260906072330 | 59 | 39 | 2.0 | 3.0 | 0.00 | 0.00 | 0.00 | 74 | 1016.1 |
| 20260906071829 | 59 | 39 | 2.0 | 3.0 | 0.00 | 0.00 | 0.00 | 75 | 1016.1 |
| 20260906071329 | 59 | 27 | 2.0 | 3.0 | 0.00 | 0.00 | 0.00 | 75 | 1016.2 |
| 20260906070830 | 59 | 27 | 2.0 | 3.0 | 0.00 | 0.00 | 0.00 | 75 | 1016.1 |
| 20260906070329 | 59 | 26 | 2.0 | 3.0 | 0.00 | 0.00 | 0.00 | 75 | 1016.2 |
| 20260906065829 | 59 | 26 | 2.0 | 3.0 | 0.00 | 0.00 | 0.00 | 75 | 1016.2 |
| 20260906065328 | 59 | 26 | 2.0 | 2.0 | 0.00 | 0.00 | 0.00 | 76 | 1016.3 |
| 20260906064829 | 59 | 25 | 1.0 | 2.0 | 0.00 | 0.00 | 0.00 | 76 | 1016.3 |
| 20260906064328 | 59 | 25 | 1.0 | 2.0 | 0.00 | 0.00 | 0.00 | 76 | 1016.3 |
| 20260906063823 | 60 | 25 | 2.0 | 3.0 | 0.00 | 0.00 | 0.00 | 76 | 1016.3 |
| 20260906063317 | 59 | 25 | 2.0 | 3.0 | 0.00 | 0.00 | 0.00 | 76 | 1016.2 |
| 20260906062811 | 59 | 25 | 2.0 | 3.0 | 0.00 | 0.00 | 0.00 | 76 | 1016.2 |
| 20260906062310 | 59 | 25 | 2.0 | 3.0 | 0.00 | 0.00 | 0.00 | 76 | 1016.1 |
| 20260906062037 | 60 | 25 | 2.0 | 3.0 | 0.00 | 0.00 | 0.00 | 76 | 1016.1 |
| 20260906060805 | 59 | 25 | 2.0 | 3.0 | 0.00 | 0.00 | 0.00 | 76 | 1016.0 |
| 20260906060534 | 59 | 25 | 2.0 | 3.0 | 0.00 | 0.00 | 0.00 | 76 | 1016.0 |
| 20260906055805 | 59 | 25 | 2.0 | 2.0 | 0.00 | 0.00 | 0.00 | 76 | 1016.0 |
| 20260906055525 | 60 | 25 | 2.0 | 3.0 | 0.00 | 0.00 | 0.00 | 76 | 1016.0 |
| 20260906054801 | 60 | 25 | 2.0 | 3.0 | 0.00 | 0.00 | 0.00 | 75 | 1016.0 |
| 20260906054302 | 60 | 25 | 2.0 | 3.0 | 0.00 | 0.00 | 0.00 | 76 | 1016.0 |
| 20260906054025 | 60 | 25 | 2.0 | 3.0 | 0.00 | 0.00 | 0.00 | 76 | 1016.1 |
| 20260906053301 | 60 | 25 | 2.0 | 3.0 | 0.00 | 0.00 | 0.00 | 75 | 1016.1 |
| 20260906053021 | 60 | 25 | 2.0 | 3.0 | 0.00 | 0.00 | 0.00 | 75 | 1016.2 |
| 20260906052533 | 60 | 25 | 2.0 | 3.0 | 0.00 | 0.00 | 0.00 | 75 | 1016.3 |
| 20260906051801 | 60 | 25 | 2.0 | 3.0 | 0.00 | 0.00 | 0.00 | 75 | 1016.3 |
| 20260906051301 | 60 | 25 | 2.0 | 3.0 | 0.00 | 0.00 | 0.00 | 75 | 1016.3 |
| 20260906050801 | 60 | 25 | 3.0 | 3.0 | 0.00 | 0.00 | 0.00 | 76 | 1016.3 |
| 20260906050301 | 60 | 25 | 3.0 | 3.0 | 0.00 | 0.00 | 0.00 | 75 | 1016.4 |
| 20260906045802 | 60 | 25 | 2.0 | 3.0 | 0.00 | 0.00 | 0.00 | 74 | 1016.3 |
| 20260906045301 | 60 | 25 | 2.0 | 3.0 | 0.00 | 0.00 | 0.00 | 74 | 1016.4 |
| 20260906044801 | 60 | 25 | 2.0 | 3.0 | 0.00 | 0.00 | 0.00 | 74 | 1016.5 |
| 20260906044530 | 60 | 25 | 2.0 | 3.0 | 0.00 | 0.00 | 0.00 | 75 | 1016.5 |
| 20260906043759 | 60 | 25 | 2.0 | 3.0 | 0.00 | 0.00 | 0.00 | 75 | 1016.4 |
| 20260906043259 | 60 | 25 | 3.0 | 3.0 | 0.00 | 0.00 | 0.00 | 75 | 1016.4 |
| 20260906043032 | 60 | 25 | 3.0 | 3.0 | 0.00 | 0.00 | 0.00 | 74 | 1016.4 |
| 20260906042256 | 60 | 25 | 2.0 | 3.0 | 0.00 | 0.00 | 0.00 | 74 | 1016.4 |
| 20260906041755 | 60 | 25 | 2.0 | 3.0 | 0.00 | 0.00 | 0.00 | 74 | 1016.4 |
| 20260906041253 | 60 | 25 | 2.0 | 3.0 | 0.00 | 0.00 | 0.00 | 74 | 1016.4 |
| 20260906040753 | 60 | 25 | 2.0 | 3.0 | 0.00 | 0.00 | 0.00 | 74 | 1016.4 |
| 20260906040253 | 61 | 25 | 2.0 | 3.0 | 0.00 | 0.00 | 0.00 | 74 | 1016.3 |
| 20260906035756 | 61 | 24 | 2.0 | 3.0 | 0.00 | 0.00 | 0.00 | 73 | 1016.4 |
| 20260906035256 | 61 | 24 | 2.0 | 3.0 | 0.00 | 0.00 | 0.00 | 74 | 1016.2 |
| 20260906034754 | 61 | 24 | 2.0 | 3.0 | 0.00 | 0.00 | 0.00 | 73 | 1016.2 |
| 20260906034251 | 61 | 24 | 2.0 | 3.0 | 0.00 | 0.00 | 0.00 | 73 | 1016.1 |
| 20260906033751 | 61 | 24 | 2.0 | 3.0 | 0.00 | 0.00 | 0.00 | 72 | 1016.1 |
| 20260906033251 | 61 | 24 | 2.0 | 3.0 | 0.00 | 0.00 | 0.00 | 72 | 1016.2 |
| 20260906032751 | 61 | 24 | 2.0 | 3.0 | 0.00 | 0.00 | 0.00 | 71 | 1016.2 |
| 20260906032251 | 61 | 24 | 2.0 | 3.0 | 0.00 | 0.00 | 0.00 | 70 | 1016.3 |
| 20260906031251 | 61 | 24 | 2.0 | 3.0 | 0.00 | 0.00 | 0.00 | 69 | 1016.3 |
| 20260906031022 | 61 | 24 | 2.0 | 3.0 | 0.00 | 0.00 | 0.00 | 69 | 1016.3 |
| 20260906030251 | 62 | 309 | 2.0 | 3.0 | 0.00 | 0.00 | 0.00 | 68 | 1016.3 |
| 20260906025751 | 62 | 301 | 1.0 | 2.0 | 0.00 | 0.00 | 0.00 | 68 | 1016.4 |
| 20260906025251 | 63 | 301 | 1.0 | 2.0 | 0.00 | 0.00 | 0.00 | 67 | 1016.5 |
| 20260906024751 | 63 | 301 | 1.0 | 2.0 | 0.00 | 0.00 | 0.00 | 66 | 1016.6 |
| 20260906024251 | 64 | 301 | 0.0 | 1.0 | 0.00 | 0.00 | 0.00 | 65 | 1016.6 |
| 20260906023751 | 65 | 301 | 0.0 | 1.0 | 0.00 | 0.00 | 0.00 | 64 | 1016.6 |
| 20260906023250 | 65 | 301 | 0.0 | 1.0 | 0.00 | 0.00 | 0.00 | 63 | 1016.6 |
| 20260906022751 | 66 | 301 | 1.0 | 3.0 | 0.00 | 0.00 | 0.00 | 63 | 1016.6 |
| 20260906022515 | 67 | 301 | 1.0 | 3.0 | 0.00 | 0.00 | 0.00 | 61 | 1016.5 |
| 20260906021747 | 66 | 300 | 1.0 | 3.0 | 0.00 | 0.00 | 0.00 | 62 | 1016.5 |
| 20260906021512 | 67 | 299 | 0.0 | 2.0 | 0.00 | 0.00 | 0.00 | 61 | 1016.3 |
| 20260906020741 | 67 | 299 | 1.0 | 4.0 | 0.00 | 0.00 | 0.00 | 60 | 1016.3 |
| 20260906020509 | 67 | 299 | 2.0 | 4.0 | 0.00 | 0.00 | 0.00 | 60 | 1016.3 |
| 20260906020009 | 67 | 295 | 1.0 | 3.0 | 0.00 | 0.00 | 0.00 | 61 | 1016.2 |
| 20260906015239 | 67 | 312 | 1.0 | 4.0 | 0.00 | 0.00 | 0.00 | 61 | 1016.1 |
| 20260906014737 | 67 | 312 | 2.0 | 4.0 | 0.00 | 0.00 | 0.00 | 60 | 1016.1 |
| 20260906014501 | 67 | 308 | 2.0 | 4.0 | 0.00 | 0.00 | 0.00 | 61 | 1016.1 |
| 20260906013732 | 66 | 308 | 2.0 | 5.0 | 0.00 | 0.00 | 0.00 | 61 | 1016.1 |
| 20260906013230 | 66 | 307 | 3.0 | 5.0 | 0.00 | 0.00 | 0.00 | 60 | 1016.0 |
| 20260906012730 | 67 | 315 | 2.0 | 5.0 | 0.00 | 0.00 | 0.00 | 60 | 1016.1 |
| 20260906012501 | 67 | 310 | 2.0 | 4.0 | 0.00 | 0.00 | 0.00 | 60 | 1016.1 |
| 20260906011730 | 67 | 312 | 3.0 | 5.0 | 0.00 | 0.00 | 0.00 | 60 | 1016.1 |
| 20260906011230 | 67 | 311 | 3.0 | 5.0 | 0.00 | 0.00 | 0.00 | 60 | 1016.1 |
| 20260906010729 | 67 | 318 | 2.0 | 4.0 | 0.00 | 0.00 | 0.00 | 60 | 1016.0 |
| 20260906010504 | 67 | 317 | 2.0 | 4.0 | 0.00 | 0.00 | 0.00 | 59 | 1016.1 |
| 20260906005729 | 67 | 318 | 2.0 | 4.0 | 0.00 | 0.00 | 0.00 | 60 | 1016.0 |
| 20260906005229 | 67 | 307 | 2.0 | 5.0 | 0.00 | 0.00 | 0.00 | 60 | 1016.0 |
| 20260906004728 | 67 | 317 | 3.0 | 5.0 | 0.00 | 0.00 | 0.00 | 61 | 1016.0 |
| 20260906004230 | 66 | 328 | 3.0 | 5.0 | 0.00 | 0.00 | 0.00 | 62 | 1016.0 |
| 20260906003729 | 67 | 312 | 3.0 | 5.0 | 0.00 | 0.00 | 0.00 | 62 | 1016.0 |
| 20260906003456 | 67 | 311 | 3.0 | 5.0 | 0.00 | 0.00 | 0.00 | 61 | 1016.0 |
| 20260906002719 | 66 | 314 | 2.0 | 5.0 | 0.00 | 0.00 | 0.00 | 62 | 1016.0 |
| 20260906002440 | 67 | 314 | 2.0 | 5.0 | 0.00 | 0.00 | 0.00 | 62 | 1016.0 |
| 20260906001944 | 67 | 310 | 3.0 | 5.0 | 0.00 | 0.00 | 0.00 | 62 | 1016.1 |
| 20260906001442 | 66 | 317 | 2.0 | 5.0 | 0.00 | 0.00 | 0.00 | 62 | 1016.0 |
| 20260906000710 | 67 | 321 | 2.0 | 4.0 | 0.00 | 0.00 | 0.00 | 63 | 1016.0 |
| 20260906000212 | 68 | 38 | 2.0 | 7.0 | 0.00 | 0.00 | 0.00 | 63 | 1016.1 |
| 20260905235710 | 67 | 306 | 2.0 | 7.0 | 0.00 | 0.00 | 0.00 | 65 | 1016.0 |
| 20260905235210 | 67 | 307 | 2.0 | 5.0 | 0.00 | 0.00 | 0.00 | 64 | 1016.1 |
| 20260905234940 | 68 | 332 | 1.0 | 6.0 | 0.00 | 0.00 | 0.00 | 62 | 1016.1 |
| 20260905234211 | 67 | 336 | 2.0 | 6.0 | 0.00 | 0.00 | 0.00 | 65 | 1016.1 |
| 20260905233708 | 67 | 132 | 2.0 | 5.0 | 0.00 | 0.00 | 0.00 | 64 | 1016.1 |
| 20260905233207 | 67 | 305 | 2.0 | 5.0 | 0.00 | 0.00 | 0.00 | 66 | 1016.1 |
| 20260905232708 | 65 | 313 | 3.0 | 5.0 | 0.00 | 0.00 | 0.00 | 67 | 1016.1 |
| 20260905232206 | 66 | 335 | 3.0 | 5.0 | 0.00 | 0.00 | 0.00 | 67 | 1016.1 |
| 20260905231704 | 66 | 333 | 2.0 | 5.0 | 0.00 | 0.00 | 0.00 | 67 | 1016.1 |
| 20260905231202 | 66 | 295 | 2.0 | 5.0 | 0.00 | 0.00 | 0.00 | 68 | 1016.0 |
| 20260905230703 | 65 | 314 | 2.0 | 6.0 | 0.00 | 0.00 | 0.00 | 68 | 1016.0 |
| 20260905230202 | 65 | 315 | 2.0 | 6.0 | 0.00 | 0.00 | 0.00 | 70 | 1016.1 |
| 20260905225702 | 65 | 332 | 2.0 | 5.0 | 0.00 | 0.00 | 0.00 | 70 | 1016.2 |
| 20260905225202 | 66 | 322 | 2.0 | 4.0 | 0.00 | 0.00 | 0.00 | 69 | 1016.2 |
| 20260905224934 | 66 | 204 | 2.0 | 5.0 | 0.00 | 0.00 | 0.00 | 72 | 1016.3 |
| 20260905224154 | 65 | 312 | 3.0 | 8.0 | 0.00 | 0.00 | 0.00 | 72 | 1016.3 |
| 20260905223648 | 65 | 263 | 3.0 | 8.0 | 0.00 | 0.00 | 0.00 | 73 | 1016.3 |
| 20260905223413 | 65 | 339 | 3.0 | 5.0 | 0.00 | 0.00 | 0.00 | 70 | 1016.4 |
| 20260905222637 | 66 | 60 | 2.0 | 5.0 | 0.00 | 0.00 | 0.00 | 71 | 1016.4 |
| 20260905222130 | 65 | 314 | 3.0 | 7.0 | 0.00 | 0.00 | 0.00 | 72 | 1016.4 |
| 20260905221628 | 65 | 306 | 3.0 | 7.0 | 0.00 | 0.00 | 0.00 | 72 | 1016.4 |
| 20260905221128 | 66 | 290 | 3.0 | 7.0 | 0.00 | 0.00 | 0.00 | 70 | 1016.4 |
| 20260905220628 | 66 | 308 | 3.0 | 6.0 | 0.00 | 0.00 | 0.00 | 68 | 1016.3 |
| 20260905220129 | 66 | 341 | 2.0 | 7.0 | 0.00 | 0.00 | 0.00 | 67 | 1016.3 |
| 20260905215628 | 66 | 326 | 2.0 | 7.0 | 0.00 | 0.00 | 0.00 | 67 | 1016.3 |
| 20260905215131 | 66 | 330 | 2.0 | 7.0 | 0.00 | 0.00 | 0.00 | 66 | 1016.3 |
| 20260905214631 | 66 | 320 | 2.0 | 5.0 | 0.00 | 0.00 | 0.00 | 66 | 1016.2 |
| 20260905214131 | 66 | 311 | 3.0 | 7.0 | 0.00 | 0.00 | 0.00 | 66 | 1016.3 |
| 20260905213629 | 66 | 310 | 3.0 | 9.0 | 0.00 | 0.00 | 0.00 | 66 | 1016.4 |
| 20260905213127 | 66 | 320 | 3.0 | 9.0 | 0.00 | 0.00 | 0.00 | 67 | 1016.4 |
| 20260905212855 | 67 | 312 | 3.0 | 7.0 | 0.00 | 0.00 | 0.00 | 67 | 1016.4 |
| 20260905212126 | 66 | 313 | 3.0 | 6.0 | 0.00 | 0.00 | 0.00 | 68 | 1016.5 |
| 20260905211626 | 65 | 323 | 3.0 | 6.0 | 0.00 | 0.00 | 0.00 | 68 | 1016.5 |
| 20260905211126 | 66 | 312 | 2.0 | 5.0 | 0.00 | 0.00 | 0.00 | 65 | 1016.5 |
| 20260905210626 | 66 | 98 | 2.0 | 4.0 | 0.00 | 0.00 | 0.00 | 68 | 1016.6 |
| 20260905210122 | 66 | 330 | 2.0 | 4.0 | 0.00 | 0.00 | 0.00 | 68 | 1016.6 |
| 20260905205622 | 65 | 334 | 2.0 | 8.0 | 0.00 | 0.00 | 0.00 | 68 | 1016.7 |
| 20260905205121 | 66 | 318 | 2.0 | 8.0 | 0.00 | 0.00 | 0.00 | 68 | 1016.7 |
| 20260905204622 | 66 | 339 | 2.0 | 5.0 | 0.00 | 0.00 | 0.00 | 68 | 1016.8 |
| 20260905204121 | 64 | 320 | 2.0 | 4.0 | 0.00 | 0.00 | 0.00 | 71 | 1016.7 |
| 20260905203620 | 65 | 323 | 2.0 | 5.0 | 0.00 | 0.00 | 0.00 | 70 | 1016.9 |
| 20260905203117 | 65 | 51 | 3.0 | 7.0 | 0.00 | 0.00 | 0.00 | 74 | 1016.9 |
| 20260905202618 | 64 | 301 | 3.0 | 7.0 | 0.00 | 0.00 | 0.00 | 71 | 1016.9 |
| 20260905202118 | 64 | 330 | 3.0 | 7.0 | 0.00 | 0.00 | 0.00 | 70 | 1016.9 |
| 20260905201618 | 65 | 313 | 2.0 | 6.0 | 0.00 | 0.00 | 0.00 | 70 | 1016.9 |
| 20260905201118 | 64 | 355 | 2.0 | 6.0 | 0.00 | 0.00 | 0.00 | 71 | 1016.9 |
| 20260905200615 | 64 | 310 | 2.0 | 4.0 | 0.00 | 0.00 | 0.00 | 70 | 1016.8 |
| 20260905200113 | 64 | 42 | 2.0 | 4.0 | 0.00 | 0.00 | 0.00 | 72 | 1016.8 |
| 20260905195614 | 65 | 345 | 1.0 | 6.0 | 0.00 | 0.00 | 0.00 | 73 | 1016.8 |
| 20260905195113 | 65 | 348 | 2.0 | 6.0 | 0.00 | 0.00 | 0.00 | 75 | 1016.8 |
| 20260905194613 | 64 | 308 | 2.0 | 7.0 | 0.00 | 0.00 | 0.00 | 76 | 1016.9 |
| 20260905194119 | 62 | 308 | 3.0 | 7.0 | 0.00 | 0.00 | 0.00 | 79 | 1016.8 |
| 20260905193617 | 63 | 310 | 2.0 | 7.0 | 0.00 | 0.00 | 0.00 | 78 | 1016.8 |
| 20260905193116 | 63 | 314 | 2.0 | 7.0 | 0.00 | 0.00 | 0.00 | 78 | 1016.9 |
| 20260905192613 | 63 | 323 | 2.0 | 5.0 | 0.00 | 0.00 | 0.00 | 80 | 1016.8 |
| 20260905192112 | 63 | 318 | 2.0 | 5.0 | 0.00 | 0.00 | 0.00 | 78 | 1016.9 |
| 20260905191108 | 62 | 295 | 2.0 | 7.0 | 0.00 | 0.00 | 0.00 | 80 | 1017.0 |
| 20260905190608 | 63 | 314 | 2.0 | 5.0 | 0.00 | 0.00 | 0.00 | 81 | 1016.9 |
| 20260905190333 | 62 | 317 | 2.0 | 5.0 | 0.00 | 0.00 | 0.00 | 84 | 1017.0 |
| 20260905185606 | 61 | 320 | 1.0 | 4.0 | 0.00 | 0.00 | 0.00 | 83 | 1017.0 |
| 20260905185105 | 61 | 318 | 0.0 | 4.0 | 0.00 | 0.00 | 0.00 | 85 | 1017.0 |
| 20260905184608 | 61 | 313 | 1.0 | 4.0 | 0.00 | 0.00 | 0.00 | 86 | 1017.1 |
| 20260905184105 | 61 | 295 | 1.0 | 4.0 | 0.00 | 0.00 | 0.00 | 85 | 1017.2 |
| 20260905183605 | 61 | 332 | 1.0 | 4.0 | 0.00 | 0.00 | 0.00 | 85 | 1017.2 |
| 20260905183106 | 61 | 316 | 2.0 | 5.0 | 0.00 | 0.00 | 0.00 | 85 | 1017.2 |
| 20260905182827 | 61 | 309 | 2.0 | 5.0 | 0.00 | 0.00 | 0.00 | 87 | 1017.3 |
| 20260905182101 | 60 | 311 | 2.0 | 5.0 | 0.00 | 0.00 | 0.00 | 87 | 1017.2 |
| 20260905181601 | 61 | 28 | 2.0 | 7.0 | 0.00 | 0.00 | 0.00 | 88 | 1017.3 |
| 20260905181100 | 60 | 301 | 1.0 | 7.0 | 0.00 | 0.00 | 0.00 | 89 | 1017.4 |
| 20260905180601 | 61 | 342 | 1.0 | 3.0 | 0.00 | 0.00 | 0.00 | 89 | 1017.3 |
| 20260905180058 | 60 | 33 | 2.0 | 5.0 | 0.00 | 0.00 | 0.00 | 90 | 1017.3 |
| 20260905175552 | 59 | 333 | 2.0 | 5.0 | 0.00 | 0.00 | 0.00 | 91 | 1017.3 |
| 20260905175051 | 59 | 285 | 1.0 | 3.0 | 0.00 | 0.00 | 0.00 | 91 | 1017.2 |
| 20260905174550 | 59 | 242 | 1.0 | 3.0 | 0.00 | 0.00 | 0.00 | 92 | 1017.3 |
| 20260905174048 | 58 | 295 | 1.0 | 3.0 | 0.00 | 0.00 | 0.00 | 92 | 1017.2 |
| 20260905173546 | 58 | 295 | 0.0 | 3.0 | 0.00 | 0.00 | 0.00 | 92 | 1017.2 |
| 20260905173304 | 58 | 295 | 0.0 | 0.0 | 0.00 | 0.00 | 0.00 | 92 | 1017.1 |
| 20260905172542 | 58 | 295 | 0.0 | 2.0 | 0.00 | 0.00 | 0.00 | 92 | 1017.1 |
| 20260905172040 | 58 | 359 | 0.0 | 2.0 | 0.00 | 0.00 | 0.00 | 92 | 1017.1 |
| 20260905171537 | 58 | 68 | 0.0 | 0.0 | 0.00 | 0.00 | 0.00 | 91 | 1017.2 |
| 20260905171035 | 58 | 69 | 0.0 | 0.0 | 0.00 | 0.00 | 0.00 | 91 | 1017.1 |
| 20260905170535 | 58 | 69 | 0.0 | 3.0 | 0.00 | 0.00 | 0.00 | 91 | 1017.1 |
| 20260905170254 | 58 | 77 | 0.0 | 3.0 | 0.00 | 0.00 | 0.00 | 91 | 1017.2 |
| 20260905165534 | 58 | 108 | 1.0 | 5.0 | 0.00 | 0.00 | 0.00 | 90 | 1017.2 |
| 20260905165030 | 58 | 104 | 1.0 | 5.0 | 0.00 | 0.00 | 0.00 | 90 | 1017.2 |
| 20260905164529 | 58 | 54 | 1.0 | 3.0 | 0.00 | 0.00 | 0.00 | 90 | 1017.2 |
| 20260905164254 | 58 | 50 | 0.0 | 3.0 | 0.00 | 0.00 | 0.00 | 90 | 1017.2 |
| 20260905163528 | 58 | 74 | 0.0 | 3.0 | 0.00 | 0.00 | 0.00 | 90 | 1017.2 |
| 20260905163258 | 58 | 69 | 0.0 | 3.0 | 0.00 | 0.00 | 0.00 | 90 | 1017.2 |
| 20260905162753 | 58 | 26 | 1.0 | 3.0 | 0.00 | 0.00 | 0.00 | 90 | 1017.2 |
| 20260905162029 | 58 | 127 | 1.0 | 2.0 | 0.00 | 0.00 | 0.00 | 90 | 1017.0 |
| 20260905161532 | 58 | 127 | 0.0 | 2.0 | 0.00 | 0.00 | 0.00 | 90 | 1017.0 |
| 20260905161022 | 58 | 126 | 0.0 | 2.0 | 0.00 | 0.00 | 0.00 | 89 | 1017.1 |
| 20260905160740 | 58 | 107 | 0.0 | 1.0 | 0.00 | 0.00 | 0.00 | 90 | 1017.0 |
| 20260905160011 | 58 | 107 | 0.0 | 2.0 | 0.00 | 0.00 | 0.00 | 90 | 1016.9 |
| 20260905155506 | 57 | 108 | 0.0 | 2.0 | 0.00 | 0.00 | 0.00 | 89 | 1016.9 |
| 20260905155003 | 58 | 103 | 0.0 | 0.0 | 0.00 | 0.00 | 0.00 | 90 | 1016.8 |
| 20260905154503 | 57 | 103 | 0.0 | 2.0 | 0.00 | 0.00 | 0.00 | 90 | 1016.7 |
| 20260905154005 | 57 | 103 | 0.0 | 3.0 | 0.00 | 0.00 | 0.00 | 90 | 1016.7 |
| 20260905153507 | 57 | 103 | 1.0 | 3.0 | 0.00 | 0.00 | 0.00 | 90 | 1016.6 |
| 20260905153001 | 57 | 112 | 1.0 | 6.0 | 0.00 | 0.00 | 0.00 | 91 | 1016.6 |
| 20260905152501 | 57 | 112 | 2.0 | 6.0 | 0.00 | 0.00 | 0.00 | 91 | 1016.7 |
| 20260905152001 | 56 | 114 | 1.0 | 5.0 | 0.00 | 0.00 | 0.00 | 93 | 1016.6 |
| 20260905151502 | 56 | 132 | 0.0 | 2.0 | 0.00 | 0.00 | 0.00 | 93 | 1016.6 |
| 20260905151001 | 56 | 135 | 0.0 | 0.0 | 0.00 | 0.00 | 0.00 | 93 | 1016.6 |
| 20260905150502 | 56 | 155 | 0.0 | 0.0 | 0.00 | 0.00 | 0.00 | 93 | 1016.6 |
| 20260905150003 | 55 | 155 | 0.0 | 0.0 | 0.00 | 0.00 | 0.00 | 93 | 1016.7 |
| 20260905145502 | 55 | 155 | 0.0 | 0.0 | 0.00 | 0.00 | 0.00 | 93 | 1016.7 |
| 20260905145002 | 56 | 157 | 0.0 | 0.0 | 0.00 | 0.00 | 0.00 | 93 | 1016.8 |
| 20260905143501 | 56 | 157 | 0.0 | 0.0 | 0.00 | 0.00 | 0.00 | 93 | 1016.7 |
| 20260905143002 | 56 | 157 | 0.0 | 0.0 | 0.00 | 0.00 | 0.00 | 93 | 1016.7 |
| 20260905142500 | 56 | 157 | 0.0 | 0.0 | 0.00 | 0.00 | 0.00 | 93 | 1016.7 |
| 20260905141953 | 56 | 157 | 0.0 | 0.0 | 0.00 | 0.00 | 0.00 | 93 | 1016.6 |
| 20260905141708 | 56 | 157 | 0.0 | 0.0 | 0.00 | 0.00 | 0.00 | 93 | 1016.6 |
| 20260905140941 | 56 | 157 | 0.0 | 0.0 | 0.00 | 0.00 | 0.00 | 93 | 1016.6 |
| 20260905140439 | 56 | 157 | 0.0 | 0.0 | 0.00 | 0.00 | 0.00 | 93 | 1016.5 |
| 20260905135937 | 56 | 157 | 0.0 | 0.0 | 0.00 | 0.00 | 0.00 | 92 | 1016.5 |
| 20260905135437 | 56 | 157 | 0.0 | 0.0 | 0.00 | 0.00 | 0.00 | 93 | 1016.6 |
| 20260905134936 | 56 | 157 | 0.0 | 0.0 | 0.00 | 0.00 | 0.00 | 92 | 1016.4 |
| 20260905134659 | 56 | 157 | 0.0 | 0.0 | 0.00 | 0.00 | 0.00 | 92 | 1016.4 |
| 20260905133933 | 57 | 157 | 0.0 | 0.0 | 0.00 | 0.00 | 0.00 | 92 | 1016.3 |
| 20260905133202 | 57 | 157 | 0.0 | 0.0 | 0.00 | 0.00 | 0.00 | 92 | 1016.1 |
| 20260905132431 | 57 | 157 | 0.0 | 0.0 | 0.00 | 0.00 | 0.00 | 92 | 1016.1 |
| 20260905131932 | 57 | 157 | 0.0 | 0.0 | 0.00 | 0.00 | 0.00 | 92 | 1016.1 |
| 20260905131431 | 57 | 157 | 0.0 | 0.0 | 0.00 | 0.00 | 0.00 | 92 | 1016.1 |
| 20260905130931 | 58 | 157 | 0.0 | 0.0 | 0.00 | 0.00 | 0.00 | 92 | 1016.2 |
| 20260905130431 | 57 | 157 | 0.0 | 0.0 | 0.00 | 0.00 | 0.00 | 92 | 1016.1 |
| 20260905125931 | 57 | 157 | 0.0 | 0.0 | 0.00 | 0.00 | 0.00 | 92 | 1016.1 |
| 20260905125655 | 57 | 160 | 0.0 | 0.0 | 0.00 | 0.00 | 0.00 | 92 | 1016.2 |
| 20260905124933 | 57 | 173 | 0.0 | 0.0 | 0.00 | 0.00 | 0.00 | 92 | 1016.2 |
| 20260905124435 | 57 | 78 | 0.0 | 0.0 | 0.00 | 0.00 | 0.00 | 92 | 1016.2 |
| 20260905124151 | 57 | 64 | 0.0 | 0.0 | 0.00 | 0.00 | 0.00 | 92 | 1016.2 |
| 20260905123430 | 57 | 64 | 0.0 | 0.0 | 0.00 | 0.00 | 0.00 | 92 | 1016.2 |
| 20260905123155 | 57 | 64 | 0.0 | 0.0 | 0.00 | 0.00 | 0.00 | 92 | 1016.3 |
| 20260905122654 | 57 | 64 | 0.0 | 0.0 | 0.00 | 0.00 | 0.00 | 92 | 1016.1 |
| 20260905121657 | 57 | 62 | 0.0 | 0.0 | 0.00 | 0.00 | 0.00 | 92 | 1016.0 |
| 20260905120430 | 57 | 62 | 0.0 | 0.0 | 0.00 | 0.00 | 0.00 | 92 | 1016.0 |
| 20260905115929 | 57 | 62 | 0.0 | 0.0 | 0.00 | 0.00 | 0.00 | 92 | 1016.0 |
| 20260905115428 | 57 | 62 | 0.0 | 0.0 | 0.00 | 0.00 | 0.00 | 92 | 1016.0 |
| 20260905114932 | 57 | 62 | 0.0 | 0.0 | 0.00 | 0.00 | 0.00 | 92 | 1016.0 |
| 20260905113928 | 57 | 62 | 0.0 | 0.0 | 0.00 | 0.00 | 0.00 | 92 | 1016.0 |
| 20260905113429 | 57 | 62 | 0.0 | 0.0 | 0.00 | 0.00 | 0.00 | 92 | 1016.0 |
| 20260905112929 | 57 | 62 | 0.0 | 0.0 | 0.00 | 0.00 | 0.00 | 92 | 1016.0 |
| 20260905112428 | 57 | 62 | 0.0 | 0.0 | 0.00 | 0.00 | 0.00 | 92 | 1015.9 |
| 20260905111928 | 57 | 62 | 0.0 | 0.0 | 0.00 | 0.00 | 0.00 | 92 | 1015.9 |